Regional Weather Roundup
Issued by NWS State College, PA

Home | Current Version | Previous Version | Text Only | Print | Product List | Glossary On
Versions: 1 2 3 4 5 6 7 8 9 10 11 12 13 14 15 16 17 18 19 20 21 22 23 24 25 26 27 28 29 30 31 32 33 34 35 36 37 38 39 40 41 42 43 44 45 46 47 48 49 50
000
ASUS41 KCTP 091610
RWRCTP

REGIONAL WEATHER ROUNDUP
NATIONAL WEATHER SERVICE STATE COLLEGE PA
1100 AM EST TUE FEB 09 2016

Note: "fair" indicates few or no clouds below 12,000 feet with no
significant weather and/or obstructions to visibility.

* = STATION THAT DOES NOT REPORT PRECIPITATION /E.G. RAIN...SNOW...ETC/
    THUNDER OR FOG.

PAZ002>004-007>009-013>016-020>023-029>032-091700-
WESTERN PENNSYLVANIA

CITY           SKY/WX    TMP DP  RH WIND       PRES   REMARKS
ERIE           CLOUDY    36  26  67 SW7       29.55S
MEADVILLE      CLOUDY    31  25  78 SW5       29.53S
FRANKLIN*      CLOUDY    32  27  80 W8        29.54F
NEW CASTLE     CLOUDY    33  26  75 W7        29.57S
BEAVER COUNTY  LGT SNOW  30  28  93 W8        29.56S
BUTLER*        CLOUDY    30  27  86 W9        29.58S
PITTSBURGH INT LGT SNOW  30  27  88 W8        29.56S VSB 1
PITTSBURGH     LGT SNOW  31  27  85 W12       29.56R VSB 3/4
INDIANA*       FOG       32  32 100 SW8       29.56S VSB 1/2
LATROBE        LGT SNOW  28  27  93 SW12G23   29.58R VSB 1
WASHINGTON CO* CLOUDY    27  21  80 SW13      29.60R
$$

PAZ004>006-010>012-017>019-024>028-033>037-041-042-045-046-049>053-091700-
CENTRAL PENNSYLVANIA

CITY           SKY/WX    TMP DP  RH WIND       PRES   REMARKS
BRADFORD       CLOUDY    31  26  82 W8        29.48S HAZE
DUBOIS         CLOUDY    31  28  89 VRB5      29.49S FOG
CLEARFIELD     CLOUDY    35  29  78 S3        29.51F
JOHNSTOWN      LGT SNOW  29  24  82 W7        29.48S VSB 3/4
ALTOONA        LGT SNOW  32  29  88 W6        29.52S VSB 3/4
STATE COLLEGE  LGT SNOW  30  28  93 CALM      29.53F FOG
WILLIAMSPORT   LGT SNOW  34  28  79 NE7       29.58F
SELINSGROVE    LGT SNOW  32  28  85 CALM      29.59F FOG
FT INDIANTOWN  LGT SNOW  30  30 100 NE7       29.58F VSB 3/4
CAPITAL CITY   SNOW      31  27  85 E7        29.59F VSB 1/4
HARRISBURG     HVY SNOW  31  28  89 NE5       29.59F VSB 1/4
YORK           SNOW      31  29  92 NE6       29.57F VSB 1/2
$$

PAZ038>040-043-044-047-048-054-055-060>062-067>071-091700-
EASTERN PENNSYLVANIA

CITY           SKY/WX    TMP DP  RH WIND       PRES   REMARKS
SCRANTON       CLOUDY    32  24  72 CALM      29.56F
MOUNT POCONO   CLOUDY    23  20  88 SE5       29.53F FOG
ALLENTOWN      CLOUDY    30  24  78 NE7       29.61F
QUAKERTOWN*    CLOUDY    30  27  86 NE5       29.60F
READING        CLOUDY    31  25  78 NE8       29.59F HAZE
LANCASTER      SNOW      30  29  96 E8        29.58F VSB 1/2
COATESVILLE    LGT SNOW  30  30 100 CALM      29.58F
POTTSTOWN      CLOUDY    30  26  85 NE7       29.61F
BLUE BELL        N/A     32  28  86 NE3       29.60F
DOYLESTOWN     CLOUDY    29  25  85 NE7       29.59F
WILLOW GROVE   NOT AVBL
NORTH PHILA    CLOUDY    34  28  79 NE12      29.62F
PHILADELPHIA   CLOUDY    34  29  82 NE10      29.61F
$$



USA.gov is the U.S. government's official web portal to all federal, state and local government web resources and services.